Terug naar catalogus

STARLINK-36315

ActiefCommunicatieSSO
NORAD 67731·PAYLOAD·🇺🇸 United States

Gelanceerd Feb 11, 2026 vanaf Vandenberg Space Force Base

Loading…

Volgende Passages (komende 24 uur)

TLE

VersSource: CelesTrak SupGP

Epoch: Sep 14, 2026, 22:45 UTC

1 67731C 26026L   26257.94840278  .00011769  00000+0  36540-3 0  2575
2 67731  97.2846 309.8508 0000923  95.6017 103.3581 15.33427821    15

Volg STARLINK-36315 in realtime met AllMySat

Download on the App Store